Miscellaneous Local Product
Issued by NWS North Platte, NE

Home | Current Version | Previous Version | Graphics & Text | Print | Product List | Glossary On
Versions: 1 2 3 4 5 6 7 8 9 10 11 12 13 14 15 16 17 18 19 20 21 22 23 24 25 26 27 28 29 30 31 32 33 34 35 36 37 38 39 40 41 42 43 44 45 46 47 48 49 50
000
AXUS43 KLBF 231010
MISLBF


WESTERN AND NORTH CENTRAL NEBRASKA HOURLY WEATHER ROUNDUP
NATIONAL WEATHER SERVICE NORTH PLATTE NE
400 AM CST SUN NOV 23 2014

***STATIONS NOT REPORTING VARIABLES SUCH AS SKY/WEATHER OR
PRESSURE ARE PROVIDED BY THE NEBRASKA DEPARTMENT OF
ROADS...RAWS...AND APRS NETWORKS...AND ARE NOT UNDER
NATIONAL WEATHER SERVICE QUALITY CONTROL***

...OBSERVATIONS IN AND NEAR THE EASTERN PANHANDLE OF NEBRASKA...

CITY           SKY/WX    TMP DP  RH WIND       PRES   REMARKS
PINE RIDGE     CLOUDY    34  32  92 SW5       29.62R WCI  30
CHADRON        CLOUDY    35  27  72 W13       29.65R WCI  26
ALLIANCE       CLOUDY    38  21  50 NW17      29.63R WCI  28
SIDNEY         CLOUDY    37  25  61 N18       29.64R WCI  27
WHITECLAY        N/A     34  31  88 NW5         N/A  WCI  30
LISCO            N/A     41  17  37 W13         N/A
BIG SPRINGS      N/A     43  28  54 NW12        N/A
LEWELLEN         N/A     16  -2  45 CALM        N/A
$$

...OBSERVATIONS IN NORTH CENTRAL NEBRASKA...

CITY           SKY/WX    TMP DP  RH WIND       PRES   REMARKS
VALENTINE      CLOUDY    40  33  76 NW20G28   29.54R WCI  30
THEDFORD       MOCLDY    41  34  76 NW23G33   29.54R
AINSWORTH      MOCLDY    40  34  79 NW22G29   29.52R WCI  30
O`NEILL        CLOUDY    47  36  64 W21G26    29.41S
ORD            MOCLDY    35  32  88 VRB3      29.44R
BROKEN BOW     MOCLDY    52  31  44 NW20      29.45R
BROWNLEE         N/A     42  36  81 NW23        N/A
BREWSTER         N/A     43  34  70 NW21        N/A
COMSTOCK         N/A     44  38  79 CALM        N/A
$$

...OBSERVATIONS IN SOUTHWEST NEBRASKA AND FAR NORTHEAST COLORADO...

CITY           SKY/WX    TMP DP  RH WIND       PRES   REMARKS
WRAY           FAIR      48  31  52 NW15      29.59R
HOLYOKE        FAIR      43  30  61 N18G25    29.61R
IMPERIAL       CLOUDY    47  29  49 NW23G31   29.57R
OGALLALA       CLOUDY    44  29  56 N25       29.57S
NORTH PLATTE   CLOUDY    38  26  62 NW10      29.53R WCI  31
MCCOOK         CLOUDY    52  28  39 W9        29.49R
LEXINGTON      CLOUDY    35  31  85 CALM      29.47R
PAXTON           N/A     44  30  59 NW10        N/A
GOTHENBURG       N/A     44  27  50 W9          N/A
CALLAWAY         N/A     47  31  53 NW23        N/A
$$

...SOME WEATHER OBSERVATIONS FROM AROUND THE REGION...

CITY           SKY/WX    TMP DP  RH WIND       PRES   REMARKS
DENVER         CLOUDY    40  25  55 N26G38    29.62R WCI  29
LARAMIE        CLOUDY    27  18  69 NW14      29.69R WCI  16
CHEYENNE       MOCLDY    30  21  69 N10       29.68R WCI  21
SCOTTSBLUFF    MOCLDY    35  27  72 NW12      29.67R WCI  27
RAPID CITY     MOCLDY    38  20  48 NW20G26   29.61R WCI  28
PIERRE         CLOUDY    39  35  86 NW16      29.52R WCI  30
WINNER         FAIR      40  34  79 NW18      29.51R WCI  31
SIOUX FALLS    MOCLDY    40  39  97 SW3       29.41R FOG
OMAHA          DRIZZLE   53  52  96 S9        29.50F
KANSAS CITY    CLOUDY    53  51  93 SE12      29.57F
WICHITA        CLOUDY    55  52  89 S13       29.47F
HAYS           CLOUDY    52  43  71 S3        29.44S
LIBERAL        PTCLDY    37  32  81 CALM      29.41F
GOODLAND       CLOUDY    50  31  48 N28G41    29.52R
$$



USA.gov is the U.S. government's official web portal to all federal, state and local government web resources and services.